星链-1363 (STARLINK-1363 )

导读 | 星芒AI

STARLINK-1363 是 SpaceX Starlink 项目中的一颗低轨通信卫星,属于第 13 批部署的星链卫星群。该卫星于 2022 年发射,运行在约 550 公里的轨道高度,旨在为全球用户提供高速互联网服务。作为星链星座的一部分,STARLINK-1363 采用先进通信技术,支持宽带接入,并具备自动避障功能,以确保运行安全。该项目致力于改善偏远地区的网络覆盖,推动全球互联网普及。

基本信息
目录编号:
45568
目录名称:
STARLINK-1363
国际标识:
2020-025AP
轨道中心:
EARTH
卫星名称:
星链-1363
卫星全名:
星链-1363 (STARLINK-1363 )
卫星状态:
在轨 (已飞行2016 天)
发射日期:
2020-04-22 UTC
国别 :
美国 (US)
星等 :
--
轨道信息
数据来源 国际轨道数据
星历时间: 2025-10-29T00:00:07+0800
22小时前
查看轨道信息
半长轴: 6826.519km
偏心率: 0.0001311
轨道倾角: 53.064°
近地点辐角 73.701°
升交点赤经 317.601°
平近点角 147.082°
近地点: 447.489km
远地点: 449.279km
周期: 93.553分钟
每日圈数: 15.392313
详细信息
固有亮度:
5
最大亮度:
2.5
卫星平台:
Starlink V1.0
覆盖范围:
全球
运营商:
太空探索技术公司
运营商所在国:
美国
制造商(研发单位):
太空探索技术公司
制造商所在国:
美国
使用方式:
暂无
卫星简介
星链(Starlink)计划是由太空探索技术公司(SpaceX)提出的一个巨型低轨卫星互联网星座项目,计划在2019年至2024年间在太空搭建由约1.2万颗卫星组成的“星链”网络,其中1584颗将部署在地球上空550千米处的近地轨道,并从2020年开始工作。该卫星仍在工作。
2D轨道图
3D轨道图
轨道高度分析图
轨道倾角分析图
轨道综合分析图
查看轨道综合分析图